Location: Ladirat
(44.8151°N, 1.9702°E)
Time: 15:41:48
(UTC+00:00)

Cosmos 2084 Rocket - Pass Details

Date: 15 May 2026
Orbit: 527 x 582 km, 62.8° (Epoch: 9 June)

Event Time Altitude Azimuth Distance (km) Brightness Sun altitude
Rises 19:41:45 0° 322° (NW) 2,756 8.6 -5.1°
Reaches altitude 10° 19:43:58 10° 324° (NW) 1,866 7.4 -5.4°
Maximum altitude 19:48:11 75° 50° (NE) 595 3.5 -6.0°
Drops below altitude 10° 19:52:26 10° 137° (SE) 1,882 5.4 -6.6°
Enters shadow 19:52:52 - 137° (SE) 2,054 5.6 -6.7°
